Stations météo

Publicité
Pau, France (7610): Température de l'air & dewpoint: 20.06.2017 07:00:00 - 26.06.2017 07:00:00 (CEST)Pau, France (7610): Température de l'air 5cm: 20.06.2017 07:00:00 - 26.06.2017 07:00:00 (CEST)Pau, France (7610): Température de l'air -20cm & Température de l'air -100cm: 20.06.2017 07:00:00 - 26.06.2017 07:00:00 (CEST)Pau, France (7610): Vitesse du vent & gusts: 20.06.2017 07:00:00 - 26.06.2017 07:00:00 (CEST)Pau, France (7610): Direction du vent: 20.06.2017 07:00:00 - 26.06.2017 07:00:00 (CEST)Pau, France (7610): reduced air pressure: 20.06.2017 07:00:00 - 26.06.2017 07:00:00 (CEST)Pau, France (7610): visibility: 20.06.2017 07:00:00 - 26.06.2017 07:00:00 (CEST)Pau, France (7610): Ensoleillement: 20.06.2017 07:00:00 - 26.06.2017 07:00:00 (CEST)Pau, France (7610): Quantités de précipitations: 20.06.2017 07:00:00 - 26.06.2017 07:00:00 (CEST)
Date & Time tt [°C] td [°C] tt 5cm [°C] tt -20cm [°C] tt -100cm [°C] ff [km/h] ff [knt] fx [km/h] fx [knt] dd ppp [hPa] vv [km] sd [min] rr [mm]
26.06.2017 07:00:00 18,8 18,1 16,9 20,8 18,0 10 5 22 12 SSE 1010,6 12 0 0,0
26.06.2017 06:00:00 18,8 18,3 16,8 20,8 18,0 8 4 11 6 ESE 1009,9 2,0 0 0,0
26.06.2017 05:00:00 19,0 18,5 17,2 20,8 18,1 4 2 10 5 E 1010,9 0,8 0 0,0
26.06.2017 04:00:00 19,5 18,8 18,4 20,9 18,1 4 2 15 8 E 1011,3 3,8 0 0,0
26.06.2017 03:00:00 19,8 19,0 19,0 20,9 18,1 5 3 9 5 WNW 1012,8 3,9 0 1,0
26.06.2017 02:00:00 20,0 19,2 19,3 20,9 18,0 6 3 21 11 S 1013,0 8 0 0,2
26.06.2017 01:00:00 20,1 19,1 19,2 20,9 18,1 10 6 15 8 SSE 1012,6 7 0 1,4
26.06.2017 00:00:00 20,9 18,8 19,5 20,9 18,1 3 2 19 10 SE 1014,7 3,7 0 0,8
25.06.2017 23:00:00 21,4 18,0 19,1 20,9 18,1 10 5 14 8 W 1014,1 20 0 0,0
25.06.2017 22:00:00 22,8 17,9 20,0 20,8 18,1 6 4 10 5 NW 1013,8 22 0 0,0
25.06.2017 21:00:00 24,1 16,9 22,6 20,8 18,1 5 3 12 6 ENE 1013,4 26 0 0,0
25.06.2017 20:00:00 24,3 16,8 22,6 20,7 18,0 7 4 16 9 E 1013,9 26 0 0,0
25.06.2017 19:00:00 25,2 16,3 25,2 20,7 18,1 11 6 16 9 SE 1014,5 29 0 0,0
25.06.2017 18:00:00 25,7 16,8 27,8 20,6 18,0 3 2 15 8 ESE 1015,1 29 22 0,0
25.06.2017 17:00:00 25,8 16,4 30,6 20,7 18,1 8 5 18 10 E 1015,7 33 60 0,0
25.06.2017 16:00:00 24,8 15,7 34,2 20,6 18,0 6 4 26 14 ENE 1016,5 19 60 0,0
25.06.2017 15:00:00 24,3 16,3 27,4 20,6 18,0 10 5 19 10 E 1017,5 27 24 0,0
25.06.2017 14:00:00 22,5 15,3 27,1 20,7 18,1 8 5 18 10 ENE 1018,4 27 0 0,0
25.06.2017 13:00:00 22,0 15,8 26,9 20,7 18,0 8 5 16 9 E 1018,9 28 1 0,0
25.06.2017 12:00:00 21,3 15,6 24,5 20,7 18,0 10 5 18 10 ENE 1019,2 20 0 0,0
25.06.2017 11:00:00 19,8 15,6 20,9 20,7 18,1 10 6 18 10 E 1019,7 26 0 0,0
25.06.2017 10:00:00 18,6 15,3 18,7 20,8 18,1 8 4 12 6 E 1020,5 25 0 0,0
25.06.2017 09:00:00 17,9 15,2 17,1 20,8 18,1 7 4 12 6 ENE 1020,6 21 0 0,0
25.06.2017 08:00:00 17,3 15,1 16,6 20,9 18,0 4 2 9 5 NE 1020,2 18 0 0,0
25.06.2017 07:00:00 17,0 15,2 16,5 20,9 18,0 0 0 7 4 N 1020,5 16 0 0,0
25.06.2017 06:00:00 16,9 15,9 15,9 21,0 18,0 2 1 5 3 N 1020,5 14 0 0,0
25.06.2017 05:00:00 16,6 15,6 14,8 21,0 18,0 4 2 6 3 N 1020,5 12 0 0,0
25.06.2017 04:00:00 16,8 15,3 14,1 21,1 18,0 2 1 6 3 WNW 1021,0 17 0 0,0
25.06.2017 03:00:00 16,8 15,3 13,2 21,1 18,0 0 0 6 3 N 1021,4 18 0 0,0
25.06.2017 02:00:00 17,5 15,1 15,6 21,2 18,0 3 1 8 5 NW 1021,8 19 0 0,0
25.06.2017 01:00:00 17,9 15,2 15,8 21,2 18,0 6 4 10 5 WNW 1022,3 18 0 0,0
25.06.2017 00:00:00 18,5 15,4 16,3 21,2 18,0 7 4 11 6 NW 1022,1 17 0 0,0
24.06.2017 23:00:00 19,2 16,6 17,5 21,3 18,1 5 3 10 5 WNW 1021,8 16 0 0,0
24.06.2017 22:00:00 20,1 15,9 18,9 21,3 18,1 4 2 13 7 SSW 1021,1 18 0 0,0
24.06.2017 21:00:00 20,5 15,9 19,7 21,3 18,0 7 4 13 7 SSW 1020,8 18 0 0,0
24.06.2017 20:00:00 21,4 15,2 21,7 21,2 18,0 8 5 13 7 SSW 1020,6 20 0 0,0
24.06.2017 19:00:00 21,8 15,2 22,7 21,2 18,0 5 3 13 7 W 1020,8 21 0 0,0
24.06.2017 18:00:00 21,4 15,5 22,7 21,2 18,0 10 6 15 8 NW 1020,7 22 0 0,0
24.06.2017 17:00:00 22,2 14,8 24,5 21,2 18,0 6 4 12 7 W 1020,8 23 0 0,0
24.06.2017 16:00:00 21,1 15,0 22,1 21,2 18,0 8 5 15 8 NW 1021,3 21 0 0,0
24.06.2017 15:00:00 21,0 14,4 24,2 21,2 18,0 8 5 14 8 NW 1021,3 23 0 0,0
24.06.2017 14:00:00 21,5 15,3 26,0 21,2 18,0 7 4 13 7 WNW 1021,3 21 0 0,0
24.06.2017 13:00:00 21,2 14,8 25,2 21,3 18,0 3 2 12 6 ENE 1021,5 24 0 0,0
24.06.2017 12:00:00 20,8 14,4 24,1 21,3 18,0 6 4 12 6 N 1021,9 21 0 0,0
24.06.2017 11:00:00 20,1 14,0 22,5 21,3 18,0 5 3 13 7 NE 1022,1 23 0 0,0
24.06.2017 10:00:00 19,3 15,2 20,6 21,4 18,0 3 1 9 5 N 1022,3 20 0 0,0
24.06.2017 09:00:00 18,7 15,9 18,6 21,4 18,0 4 2 6 3 S 1022,4 14 0 0,0
24.06.2017 08:00:00 18,1 16,8 17,9 21,4 18,0 0 0 5 3 N 1022,5 10 0 0,0
24.06.2017 07:00:00 17,9 16,6 17,2 21,5 18,0 0 0 5 3 N 1022,2 8 0 0,0
24.06.2017 06:00:00 17,9 16,2 17,2 21,5 18,0 2 1 6 3 S 1022,6 10 0 0,0
24.06.2017 05:00:00 17,9 16,4 17,3 21,6 18,0 2 1 5 3 S 1023,3 14 0 0,0
24.06.2017 04:00:00 17,7 16,0 17,4 21,6 18,0 0 0 5 3 N 1023,8 19 0 0,0
24.06.2017 03:00:00 17,8 16,0 17,4 21,7 18,0 0 0 10 5 N 1024,0 12 0 0,0
24.06.2017 02:00:00 18,0 16,2 17,6 21,7 18,0 6 3 13 7 N 1024,3 9 0 0,0
24.06.2017 01:00:00 18,7 17,5 18,2 21,7 18,0 6 3 14 8 WSW 1024,3 9 0 0,0
24.06.2017 00:00:00 19,0 17,8 18,5 21,8 18,0 8 4 13 7 WSW 1024,4 9 0 0,0
23.06.2017 23:00:00 19,0 18,2 18,8 21,8 18,0 5 3 8 4 WSW 1024,2 8 0 0,0
23.06.2017 22:00:00 19,0 18,2 18,9 21,8 17,9 5 3 13 7 NW 1023,7 4,1 0 0,2
23.06.2017 21:00:00 19,1 18,1 19,0 21,8 17,9 11 6 20 11 NNW 1023,4 3,2 0 0,0
23.06.2017 20:00:00 20,8 18,0 21,1 21,8 17,9 9 5 15 8 W 1022,6 11 0 0,0
23.06.2017 19:00:00 21,5 17,9 22,4 21,8 17,9 8 4 18 10 W 1022,4 17 0 0,0
23.06.2017 18:00:00 21,3 18,1 22,5 21,8 17,9 16 9 21 11 NW 1022,7 18 0 0,0
23.06.2017 17:00:00 22,0 18,0 23,7 21,8 17,9 9 5 14 8 WNW 1022,6 20 0 0,0
23.06.2017 16:00:00 21,8 17,6 22,9 21,8 17,9 10 6 18 10 NW 1022,4 23 0 0,0
23.06.2017 15:00:00 21,9 18,1 24,2 21,8 17,9 13 7 19 10 NNW 1022,6 23 0 0,0
23.06.2017 14:00:00 22,1 18,5 21,6 21,8 17,9 6 4 19 11 NW 1022,8 21 0 0,0
23.06.2017 13:00:00 21,5 18,1 23,1 21,9 17,9 11 6 19 10 NW 1023,1 17 0 0,0
23.06.2017 12:00:00 21,1 18,1 21,7 21,9 17,9 12 6 16 9 WNW 1023,2 15 0 0,0
23.06.2017 11:00:00 20,4 18,2 20,5 22,0 17,9 10 5 14 8 W 1023,1 15 0 0,0
23.06.2017 10:00:00 19,5 18,2 19,3 22,0 17,9 9 5 15 8 WNW 1023,3 11 0 0,0
23.06.2017 09:00:00 18,8 17,8 18,8 22,1 17,9 9 5 14 8 W 1023,2 10 0 0,0
23.06.2017 08:00:00 18,4 17,6 18,3 22,1 17,8 5 3 14 7 WNW 1022,7 8 0 0,0
23.06.2017 07:00:00 18,4 17,7 18,2 22,2 17,8 9 5 15 8 W 1022,4 6 0 1,4
23.06.2017 06:00:00 18,4 17,6 18,3 22,3 17,8 9 5 15 8 WNW 1022,4 7 0 0,0
23.06.2017 05:00:00 18,5 17,7 18,3 22,3 17,8 11 6 22 12 WNW 1022,2 9 0 0,2
23.06.2017 04:00:00 18,6 18,1 18,5 22,3 17,8 10 5 19 10 W 1021,9 1,7 0 0,2
23.06.2017 03:00:00 18,5 18,0 18,5 22,4 17,8 12 7 20 11 W 1021,9 1,9 0 0,0
23.06.2017 02:00:00 18,6 18,1 18,6 22,4 17,8 11 6 19 10 W 1021,9 1,6 0 0,0
23.06.2017 01:00:00 18,7 18,0 18,6 22,5 17,8 8 4 21 11 W 1021,7 2,8 0 0,2
23.06.2017 00:00:00 18,8 18,1 18,7 22,5 17,8 14 8 23 13 WNW 1021,4 6 0 0,0
22.06.2017 23:00:00 18,9 18,2 18,8 22,5 17,8 11 6 24 13 WNW 1020,9 3,3 0 0,0
22.06.2017 22:00:00 19,1 18,3 19,0 22,5 17,8 17 9 25 14 NW 1020,2 3,6 0 0,0
22.06.2017 21:00:00 20,0 18,8 19,8 22,4 17,8 14 8 29 15 WNW 1019,7 2,9 0 0,0
22.06.2017 20:00:00 21,2 18,9 21,8 22,3 17,8 18 10 28 15 WNW 1018,9 6 0 0,0
22.06.2017 19:00:00 23,0 19,2 25,1 22,2 17,8 21 11 34 18 WNW 1018,0 11 17 0,0
22.06.2017 18:00:00 26,6 20,9 30,3 22,2 17,8 21 12 34 18 NW 1017,5 8 60 0,0
22.06.2017 17:00:00 27,8 21,3 33,8 22,1 17,8 17 9 29 16 NNW 1017,1 7 60 0,0
22.06.2017 16:00:00 28,2 22,2 37,4 22,0 17,8 16 8 26 14 N 1016,8 7 60 0,0
22.06.2017 15:00:00 27,6 21,2 39,7 21,9 17,7 10 6 23 12 NNW 1017,1 9 60 0,0
22.06.2017 14:00:00 26,9 21,9 38,7 21,9 17,7 9 5 20 11 NW 1017,1 7 60 0,0
22.06.2017 13:00:00 25,2 20,7 35,2 22,0 17,7 10 5 19 10 NNW 1017,8 7 60 0,0
22.06.2017 12:00:00 24,3 20,8 27,1 22,0 17,7 9 5 18 10 NW 1017,7 5 12 0,0
22.06.2017 11:00:00 22,5 20,4 24,5 22,1 17,7 8 5 17 9 W 1017,9 6 0 0,0
22.06.2017 10:00:00 21,7 20,3 22,7 22,1 17,7 11 6 18 10 NW 1017,8 4,5 0 0,0
22.06.2017 09:00:00 21,0 20,3 22,0 22,1 17,7 10 5 18 10 WNW 1017,2 1,7 14 0,0
22.06.2017 08:00:00 21,0 18,4 17,2 22,2 17,7 6 4 10 5 WNW 1016,6 14 38 0,0
22.06.2017 07:00:00 19,3 16,9 15,4 22,3 17,7 0 0 7 4 N 1016,1 20 3 0,0
22.06.2017 06:00:00 20,9 15,4 16,9 22,3 17,7 5 3 10 5 SE 1015,6 20 0 0,0
22.06.2017 05:00:00 21,3 16,3 17,3 22,4 17,7 8 5 12 7 SE 1015,1 19 0 0,0
22.06.2017 04:00:00 21,7 16,4 16,5 22,4 17,7 6 3 8 4 SSE 1015,2 22 0 0,0
22.06.2017 03:00:00 21,6 17,0 16,9 22,5 17,7 5 3 9 5 ESE 1015,3 23 0 0,0
22.06.2017 02:00:00 23,8 16,8 18,6 22,4 17,7 8 4 10 5 SE 1015,3 23 0 0,0
22.06.2017 01:00:00 23,7 17,2 18,3 22,4 17,7 4 2 11 6 ESE 1015,5 24 0 0,0
22.06.2017 00:00:00 25,0 18,9 18,3 22,4 17,6 4 2 9 5 ESE 1015,2 17 0 0,0
21.06.2017 23:00:00 25,9 20,2 18,5 22,4 17,7 4 2 8 5 S 1014,7 20 0 0,0
21.06.2017 22:00:00 27,8 20,1 20,7 22,3 17,6 3 2 9 5 NNE 1014,1 20 8 0,0
21.06.2017 21:00:00 31,5 20,5 25,5 22,3 17,7 5 3 12 7 NNE 1013,7 21 60 0,0
21.06.2017 20:00:00 33,7 17,8 29,1 22,2 17,6 8 4 12 7 N 1013,2 27 60 0,0
21.06.2017 19:00:00 34,1 18,6 33,2 22,0 17,6 5 3 12 7 NW 1013,2 15 60 0,0
21.06.2017 18:00:00 34,4 15,8 36,0 21,9 17,6 6 3 16 9 NW 1013,0 17 60 0,0
21.06.2017 17:00:00 34,3 17,5 40,3 21,8 17,6 8 5 19 11 W 1013,0 20 60 0,0
21.06.2017 16:00:00 34,1 19,0 41,1 21,7 17,6 5 3 23 12 NNW 1013,2 20 60 0,0
21.06.2017 15:00:00 33,6 18,5 44,5 21,7 17,6 6 3 15 8 N 1013,6 20 60 0,0
21.06.2017 14:00:00 33,3 17,9 43,4 21,6 17,6 5 3 11 6 N 1014,3 20 60 0,0
21.06.2017 13:00:00 32,6 19,1 41,2 21,6 17,5 4 2 12 6 NNE 1014,5 20 60 0,0
21.06.2017 12:00:00 32,0 18,6 38,1 21,6 17,6 3 2 9 5 NNE 1014,8 25 60 0,0
21.06.2017 11:00:00 30,3 18,7 32,9 21,7 17,6 4 2 9 5 ENE 1014,9 29 60 0,0
21.06.2017 10:00:00 27,5 17,4 28,2 21,7 17,6 4 2 11 6 E 1014,9 20 60 0,0
21.06.2017 09:00:00 24,6 17,1 21,4 21,8 17,5 5 3 9 5 SE 1015,1 15 58 0,0
21.06.2017 08:00:00 21,1 16,3 17,3 21,8 17,5 5 3 9 5 ESE 1015,1 21 22 0,0
21.06.2017 07:00:00 19,8 16,1 15,5 21,9 17,5 4 2 9 5 ESE 1015,1 16 0 0,0
21.06.2017 06:00:00 19,3 16,5 15,6 21,9 17,5 5 3 7 4 ESE 1015,1 19 0 0,0
21.06.2017 05:00:00 20,9 16,9 16,5 21,9 17,5 8 4 9 5 SSE 1014,9 18 0 0,0
21.06.2017 04:00:00 20,7 17,9 16,6 22,0 17,5 5 3 7 4 ESE 1015,4 18 0 0,0
21.06.2017 03:00:00 22,8 17,5 18,0 22,0 17,5 4 2 6 4 S 1015,4 20 0 0,0
21.06.2017 02:00:00 22,8 18,3 19,3 22,0 17,5 4 2 6 3 S 1015,5 19 0 0,0
21.06.2017 01:00:00 22,9 19,1 18,6 22,0 17,5 3 1 5 3 SE 1016,0 18 0 0,0
21.06.2017 00:00:00 24,5 18,7 19,6 22,0 17,5 3 2 5 3 E 1015,6 19 0 0,0
20.06.2017 23:00:00 25,8 18,2 20,6 22,0 17,5 2 1 8 4 ESE 1015,4 21 0 0,0
20.06.2017 22:00:00 28,8 18,3 24,5 22,0 17,5 6 3 9 5 S 1014,7 22 0 0,0
20.06.2017 21:00:00 30,2 20,2 28,2 21,9 17,5 4 2 12 6 S 1014,5 19 50 0,0
20.06.2017 20:00:00 31,5 17,8 30,6 21,8 17,5 8 4 15 8 S 1014,0 19 60 0,0
20.06.2017 19:00:00 33,1 16,5 32,8 21,8 17,5 12 6 21 12 SSE 1013,7 15 60 0,0
20.06.2017 18:00:00 33,1 16,9 33,6 21,7 17,5 10 5 18 10 ESE 1013,9 17 58 0,0
20.06.2017 17:00:00 32,0 21,5 32,9 21,6 17,5 10 6 21 11 NNW 1014,5 9 9 0,0
20.06.2017 16:00:00 31,7 20,6 34,7 21,6 17,4 8 5 16 9 N 1014,9 17 27 0,0
20.06.2017 15:00:00 31,1 23,0 34,4 21,6 17,4 11 6 18 10 NNW 1015,1 14 11 0,0
20.06.2017 14:00:00 30,2 21,3 31,6 21,5 17,5 8 5 14 7 WNW 1015,4 19 0 0,0
20.06.2017 13:00:00 29,9 20,7 31,3 21,5 17,4 9 5 13 7 W 1015,5 20 0 0,0
20.06.2017 12:00:00 32,1 19,0 37,5 21,5 17,4 2 1 11 6 NNE 1015,5 20 45 0,0
20.06.2017 11:00:00 30,7 20,3 35,3 21,6 17,4 0 0 8 4 N 1015,8 14 56 0,0
20.06.2017 10:00:00 28,7 19,1 29,0 21,6 17,4 4 2 11 6 SSW 1016,0 17 56 0,0
20.06.2017 09:00:00 25,6 19,5 23,3 21,6 17,4 6 3 9 5 E 1015,9 19 60 0,0
20.06.2017 08:00:00 22,3 18,9 18,2 21,7 17,4 3 2 12 6 SE 1016,2 15 41 0,0
20.06.2017 07:00:00 19,7 18,0 15,9 21,7 17,4 5 3 9 5 ESE 1016,2 11 0 0,0

tt = Température de l'air
td = dewpoint
tt 5cm = Température de l'air 5cm
tt -20cm = Température de l'air -20cm
tt -100cm = Température de l'air -100cm
ff = Vitesse du vent
fx = gusts
dd = Direction du vent
ppp = reduced air pressure
vv = visibility
sd = Ensoleillement
rr = Quantités de précipitations

stations d'obs. à proximité